Regional Weather Roundup
Issued by NWS

Home | Current Version | Previous Version | Text Only | Print | Product List | Glossary Off
Versions: 1 2 3 4 5 6 7 8 9 10 11 12 13 14 15 16 17 18 19 20 21 22 23 24 25 26 27 28 29 30 31 32 33 34 35 36 37 38 39 40 41 42 43 44 45 46 47 48 49 50

000
ASUS45 KCYS 221510
RWRWY

WYOMING REGIONAL WEATHER ROUNDUP
NATIONAL WEATHER SERVICE CHEYENNE WY
900 AM MDT SAT JUL 22 2017

NOTE:  "FAIR" INDICATES FEW OR NO CLOUDS BELOW 12,000 FEET
WITH NO SIGNIFICANT WEATHER AND/OR OBSTRUCTIONS TO VISIBILITY.

WYZ001-221600-
YELLOWSTONE NATIONAL PARK

CITY           SKY/WX    TMP DP  RH WIND       PRES   REMARKS
LK YELLOWSTONE   N/A     55  45  68 CALM      30.42R
W YELLOWSTONE  NOT AVBL

$$
WYZ002>013-054>058-071-098>099-221600-
NORTHERN WYOMING

CITY           SKY/WX    TMP DP  RH WIND       PRES   REMARKS
JACKSON        SUNNY     55  36  47 CALM      30.35S
CODY           FAIR      70  32  24 VRB3      30.26R
GREYBULL       FAIR      70  34  26 SE6       30.16R
WORLAND        FAIR      73  28  18 W3        30.17R
SHERIDAN       FAIR      71  44  37 SE3       30.18R
BUFFALO        FAIR      72  32  23 N10       30.23R
GILLETTE       FAIR      73  33  23 N9        30.17R
HULETT         FAIR      73  37  27 E5        30.16S
NEWCASTLE      FAIR      79  43  27 SW7       30.12S

$$
WYZ014>020-022>026-101>103-221600-
CENTRAL WYOMING

CITY           SKY/WX    TMP DP  RH WIND       PRES   REMARKS
BIG PINEY      FAIR      60  38  43 CALM      30.37R
PINEDALE       FAIR      61  39  44 N3        30.37S
DUBOIS         FAIR      59  32  36 N7        30.36S
LANDER         FAIR      67  43  41 S3        30.27R
RIVERTON       FAIR      74  30  19 CALM      30.25R
CASPER         FAIR      73  35  25 N14       30.23R
DOUGLAS        FAIR      74  48  39 W15       30.17R

$$
WYZ021-027>030-104>119-221600-
SOUTHERN WYOMING

CITY           SKY/WX    TMP DP  RH WIND       PRES   REMARKS
EVANSTON       FAIR      66  42  41 CALM      30.36R
KEMMERER         N/A     64  34  32 N9        30.38R
FORT BRIDGER   FAIR      67  39  35 W6        30.38R
ROCK SPRINGS   FAIR      68  46  45 VRB3      30.35R
RAWLINS        FAIR      69  48  47 SW10      30.33R
SARATOGA       FAIR      63  52  67 SE7       30.36S
LARAMIE        FAIR      64  50  60 CALM      30.35R
CHEYENNE       FAIR      76  48  37 NW17G24   30.23R
TORRINGTON     FAIR      72  55  55 VRB3      30.11R
PINE BLUFFS    FAIR      79  46  31 N13       30.18R

$$



USA.gov is the U.S. government's official web portal to all federal, state and local government web resources and services.